[[{"header":{"parameterUnit":"m.s-1","parameterCategory":1,"la1":30.2991,"la2":30.254,"lo1":-89.0895,"lo2":-89.0444,"dy":0.0017,"dx":0.0017,"nx":28,"ny":28,"refTime":"2025-04-11T03:00:00:Z","depth":0,"parameterNumber":2,"parameterNumberName":"U-component_of_WINDS"},"data":[0,0,0,0,0,0,0,0,0,0,0,0,0,0,0,0,0,0,0,0,0,0,0,0,0,0,0,0,0,0,0,0,0,0,0,0,0,0,0,0,0,0,0,0,0,0,0,0,0,0,0,0,0,0,0,0,0,0,3.2017,3.2019,0,3.2219,3.2221,3.2224,3.2233,3.223,3.2228,3.2226,3.2439,3.2446,3.2454,0,0,0,0,0,0,0,0,0,0,0,0,0,3.1647,3.1654,3.2017,3.202,3.2022,3.2219,3.2222,3.2224,3.2233,3.223,3.2227,3.2225,3.2436,3.2445,3.2455,0,0,0,0,0,0,0,0,0,0,0,0,0,3.1824,3.1656,3.2017,3.205,3.2055,3.2218,3.2222,3.2225,3.2234,3.223,3.2226,3.2223,3.2433,3.2445,3.2456,3.2602,0,0,3.2493,3.2498,0,0,0,0,0,0,0,0,3.1814,3.1838,3.2043,3.2048,3.2054,3.2197,3.2169,3.2352,3.2235,3.2166,3.2226,3.2221,3.2362,3.2379,3.2425,3.2612,3.2621,3.2494,3.2501,3.2506,3.2509,0,0,0,0,0,0,0,3.1802,3.1829,3.2097,3.2046,3.2053,3.2058,3.2079,3.2204,3.2282,3.2172,3.2173,3.2196,3.2364,3.2414,3.243,3.2624,3.2493,3.2504,3.2511,3.2516,3.2944,3.2948,0,0,0,0,0,0,3.1782,3.1819,3.2091,3.2103,3.1923,3.2067,3.2091,3.2155,3.228,3.2296,3.2199,3.2196,3.2395,3.2416,3.2438,3.2619,3.2506,3.2517,3.2524,3.294,3.2945,3.295,0,0,0,0,0,0,3.1774,3.1806,3.2083,3.1962,3.1997,3.2077,3.2149,3.2161,3.221,3.2301,3.2316,3.2235,3.2393,3.2421,3.2561,3.2626,3.2522,3.2533,3.2935,3.2941,3.2947,3.298,0,0,0,0,0,0,3.1764,3.1803,3.1857,3.1963,3.2003,3.22,3.2153,3.2167,3.223,3.2228,3.2339,3.2354,3.2392,3.2543,3.2573,3.2641,3.2542,3.2929,3.2938,3.2945,3.2973,3.2987,3.2998,0,0,0,0,0,3.175,3.1859,3.186,3.1893,3.2072,3.2204,3.2228,3.2268,3.2235,3.2291,3.235,3.235,3.2614,3.2558,3.2591,3.2663,3.2925,3.2935,3.2945,3.2968,3.2984,3.2998,0,0,0,0,0,0,3.1761,3.1873,3.1876,3.2021,3.2103,3.2205,3.2277,3.2284,3.2378,3.2372,3.2421,3.2446,3.2585,3.2638,3.2574,3.2812,3.2766,3.2783,3.2773,3.2789,3.2801,3.2786,3.2552,0,0,0,0,0,3.1779,3.1875,3.1969,3.2089,3.2129,3.2196,3.2255,3.228,3.2367,3.2402,3.2471,3.2558,3.2661,3.2727,3.2827,3.2981,3.3007,3.3047,3.306,3.3069,3.3084,3.3173,3.3192,3.2981,3.2981,3.2981,0,0,3.182,3.1894,3.1951,3.2093,3.2159,3.2259,3.2225,3.2332,3.2408,3.2419,3.2556,3.261,3.271,3.2859,3.2927,3.2907,3.3148,3.3081,3.3088,3.3098,3.3184,3.3204,3.3222,3.2987,3.2986,3.2985,0,0,3.1946,3.2009,3.2117,3.2184,3.2285,3.2329,3.2355,3.2457,3.2493,3.2631,3.2642,3.2734,3.2909,3.2981,3.3041,3.3197,3.3201,3.3228,3.3292,3.3379,3.3395,3.341,3.3469,3.3489,3.3242,3.3242,3.3242,0,3.1984,3.2133,3.2172,3.228,3.2344,3.2357,3.2468,3.2532,3.2661,3.2706,3.268,3.2902,3.2971,3.3138,3.3176,3.3223,3.3257,3.3216,3.3389,3.3405,3.342,3.3476,3.3497,3.3245,3.3244,3.3244,3.3244,0,3.2177,3.2281,3.2356,3.2479,3.2551,3.266,3.2718,3.2787,3.2806,3.2854,3.2996,3.3079,3.3197,3.3238,3.3258,3.341,3.3394,3.3378,3.3333,3.3442,3.3496,3.3517,3.3249,3.3248,3.3247,3.3246,0,0,3.2313,3.2457,3.2485,3.2542,3.2655,3.2737,3.2848,3.2962,3.3022,3.3111,3.3207,3.3356,3.3344,3.3411,3.344,3.3515,3.3637,3.3491,3.3494,3.3517,3.3813,3.3825,3.3849,3.364,3.3644,3.3648,3.3805,0,3.2453,3.2648,3.2688,3.2859,3.2958,3.2973,3.3071,3.3152,3.3201,3.3294,3.3348,3.3454,3.3428,3.3469,3.3544,3.3606,3.3697,3.3595,3.3734,3.3738,3.3709,3.3877,3.3889,3.4034,3.3826,3.383,3.3833,0,3.2641,3.2733,3.2914,3.3016,3.3059,3.3146,3.3255,3.3342,3.3437,3.3467,3.3544,3.3565,3.3685,3.3633,3.3801,3.3731,3.379,3.383,3.3836,3.3852,3.3793,3.3899,3.4081,3.4103,3.3866,3.3863,3.3861,0,3.2725,3.2895,3.3026,3.3074,3.3196,3.3257,3.3311,3.3402,3.3469,3.3565,3.361,3.3719,3.378,3.3866,3.3917,3.3875,3.4083,3.4035,3.4114,3.4113,3.4158,3.4155,3.4354,3.4193,3.4193,3.4193,3.4192,0,3.2877,3.2988,3.3065,3.3146,3.3271,3.3318,3.3442,3.3496,3.3577,3.3671,3.3691,3.378,3.3841,3.3939,3.3981,3.4115,3.4142,3.4172,3.4182,3.4172,3.4168,3.4212,3.4204,3.4199,3.4197,3.4196,3.4195,0,3.2992,3.3048,3.3192,3.3297,3.3326,3.3414,3.3505,3.3585,3.3635,3.3753,3.3784,3.3863,3.3979,3.4039,3.4184,3.4213,3.4365,3.4368,3.4333,3.4337,3.4414,3.4407,3.465,3.4686,3.4499,3.4501,3.4503,0,3.3086,3.3172,3.3285,3.3349,3.3404,3.3506,3.3574,3.3625,3.3696,3.3812,3.3879,3.3996,3.4093,3.4279,3.4351,3.4464,3.4471,3.4549,3.4488,3.4476,3.4476,3.447,3.4481,3.456,3.4561,3.4563,3.4564,0,3.3248,3.3272,3.3369,3.3477,3.3557,3.3645,3.3732,3.3783,3.3848,3.3928,3.4046,3.4121,3.427,3.4388,3.4506,3.4566,3.4578,3.4582,3.4607,3.4598,3.4575,3.4591,3.4364,3.4577,3.4575,3.4575,3.4574,3.4573,3.3357,3.3435,3.3527,3.3636,3.3706,3.3787,3.3869,3.3929,3.4028,3.4152,3.4177,3.4303,3.44,3.4559,3.4623,3.4725,3.4709,3.4744,3.4753,3.4762,3.4767,3.4557,3.4746,3.4746,3.4746,3.4746,3.4745,0,3.3522,3.3583,3.3681,3.3802,3.3888,3.3889,3.3986,3.4059,3.417,3.4257,3.4352,3.4491,3.4606,3.4687,3.4805,3.4872,3.488,3.4901,3.4898,3.4912,3.4773,3.4741,3.4892,3.4892,3.4892,3.4892,3.4892,3.4892,3.3617,3.375,3.3786,3.3955,3.4016,3.4139,3.4194,3.4271,3.4341,3.4495,3.459,3.4641,3.4728,3.4853,3.496,3.4981,3.5025,3.5046,3.5068,3.4937,3.4921,3.4907,3.4877,3.5054,3.5055,3.5199,3.52,3.5201]},{"header":{"parameterUnit":"m.s-1","parameterCategory":1,"la1":30.2991,"la2":30.254,"lo1":-89.0895,"lo2":-89.0444,"dy":0.0017,"dx":0.0017,"nx":28,"ny":28,"refTime":"2025-04-11T03:00:00:Z","depth":0,"parameterNumber":3,"parameterNumberName":"V-component_of_WINDS"},"data":[0,0,0,0,0,0,0,0,0,0,0,0,0,0,0,0,0,0,0,0,0,0,0,0,0,0,0,0,0,0,0,0,0,0,0,0,0,0,0,0,0,0,0,0,0,0,0,0,0,0,0,0,0,0,0,0,0,0,3.1231,3.1234,0,3.1498,3.1501,3.1504,3.1532,3.1529,3.1526,3.1524,3.1802,3.1812,3.1822,0,0,0,0,0,0,0,0,0,0,0,0,0,3.075,3.0758,3.1231,3.1234,3.1238,3.1498,3.1502,3.1505,3.1532,3.1529,3.1526,3.1523,3.1799,3.1811,3.1823,0,0,0,0,0,0,0,0,0,0,0,0,0,3.0982,3.0761,3.123,3.1282,3.129,3.1497,3.1502,3.1506,3.1533,3.1529,3.1525,3.1521,3.1795,3.181,3.1824,3.2,0,0,3.187,3.1877,0,0,0,0,0,0,0,0,3.0969,3.1,3.1271,3.1279,3.1288,3.1477,3.1434,3.1672,3.1534,3.1441,3.1524,3.1519,3.1698,3.1721,3.178,3.2013,3.2025,3.1871,3.1881,3.1887,3.1891,0,0,0,0,0,0,0,3.0953,3.0988,3.1337,3.1275,3.1285,3.1294,3.1323,3.1479,3.159,3.1449,3.1451,3.1482,3.1702,3.1765,3.1787,3.2029,3.1871,3.1884,3.1894,3.1899,3.2422,3.2427,0,0,0,0,0,0,3.0926,3.0975,3.1328,3.1345,3.1115,3.1306,3.1338,3.1421,3.1588,3.1609,3.1486,3.1483,3.1742,3.1769,3.1797,3.2016,3.1887,3.1901,3.1909,3.2417,3.2423,3.2429,0,0,0,0,0,0,3.0916,3.0957,3.1318,3.1161,3.1207,3.1319,3.1412,3.1428,3.1492,3.1616,3.1636,3.153,3.174,3.1775,3.1949,3.2026,3.1908,3.1921,3.2412,3.2419,3.2426,3.2454,0,0,0,0,0,0,3.0902,3.0953,3.102,3.1162,3.1215,3.1464,3.1416,3.1437,3.1517,3.1516,3.1663,3.1683,3.1739,3.1927,3.1964,3.2044,3.1933,3.2405,3.2415,3.2424,3.2446,3.2461,3.2473,0,0,0,0,0,3.0884,3.1017,3.1023,3.1065,3.13,3.1469,3.15,3.156,3.1523,3.1592,3.1672,3.1679,3.201,3.1944,3.1987,3.2072,3.2401,3.2412,3.2423,3.244,3.2458,3.2473,0,0,0,0,0,0,3.0882,3.1037,3.1045,3.1227,3.1334,3.1473,3.1562,3.1576,3.1697,3.1691,3.1762,3.1795,3.1967,3.2037,3.196,3.2252,3.2202,3.2222,3.2201,3.2219,3.2232,3.2213,3.1945,0,0,0,0,0,3.0903,3.1025,3.1153,3.1302,3.1355,3.1449,3.1525,3.1562,3.1676,3.1722,3.1815,3.1927,3.2057,3.2141,3.2267,3.2455,3.249,3.2535,3.2549,3.2559,3.2577,3.2685,3.2708,3.2465,3.2465,3.2465,0,0,3.0947,3.1046,3.1119,3.1304,3.1392,3.1519,3.1487,3.1622,3.1719,3.1743,3.1914,3.1985,3.2116,3.2298,3.2383,3.2362,3.2651,3.2573,3.2581,3.2593,3.2699,3.2722,3.2742,3.2472,3.2471,3.247,0,0,3.1093,3.1179,3.1314,3.1402,3.1535,3.1597,3.1629,3.1766,3.1814,3.1986,3.2008,3.2123,3.2345,3.2438,3.2514,3.2696,3.2709,3.2735,3.2807,3.2912,3.2931,3.2949,3.3017,3.3041,3.2752,3.2752,3.2752,0,3.1132,3.1323,3.1382,3.1518,3.16,3.1626,3.1765,3.1848,3.2016,3.2073,3.2045,3.2326,3.2415,3.2621,3.2666,3.2725,3.2767,3.272,3.2923,3.2941,3.2959,3.3025,3.305,3.2754,3.2754,3.2754,3.2754,0,3.1367,3.1499,3.1592,3.1752,3.1845,3.1981,3.2062,3.2149,3.2178,3.2243,3.2419,3.2527,3.2677,3.2728,3.2757,3.294,3.2923,3.2908,3.286,3.2983,3.3047,3.3073,3.2758,3.2757,3.2756,3.2756,0,0,3.1521,3.1712,3.1746,3.182,3.1969,3.2073,3.2211,3.2357,3.2432,3.2546,3.2666,3.2853,3.2841,3.2928,3.2968,3.3059,3.3202,3.3035,3.3039,3.3065,3.3414,3.3426,3.3454,3.3209,3.3214,3.3218,3.3404,0,3.1687,3.1933,3.1991,3.2203,3.2328,3.2355,3.2476,3.2582,3.2646,3.2763,3.2835,3.2968,3.294,3.2993,3.3084,3.3165,3.3273,3.3152,3.3325,3.3331,3.3295,3.3487,3.3501,3.3671,3.3429,3.3433,3.3436,0,3.1914,3.2034,3.2258,3.2393,3.2447,3.2555,3.2694,3.2804,3.2925,3.2966,3.3063,3.3094,3.3242,3.3183,3.339,3.3306,3.338,3.343,3.3438,3.346,3.3393,3.3518,3.3726,3.3754,3.3475,3.3472,3.3469,0,3.2009,3.2226,3.2389,3.2451,3.2611,3.2687,3.2757,3.2874,3.2958,3.308,3.3137,3.3274,3.335,3.3457,3.3526,3.3476,3.3728,3.3674,3.3769,3.3768,3.3824,3.382,3.4051,3.3865,3.3864,3.3864,3.3863,0,3.2191,3.2329,3.2434,3.2535,3.2691,3.2756,3.2908,3.2979,3.3083,3.32,3.3231,3.3341,3.3422,3.3544,3.3598,3.3763,3.3796,3.3836,3.385,3.3836,3.3831,3.3888,3.388,3.3871,3.3869,3.3868,3.3867,0,3.2325,3.2401,3.2581,3.2717,3.2755,3.2864,3.2982,3.3082,3.3147,3.3295,3.3333,3.3436,3.358,3.3658,3.3839,3.3876,3.4062,3.4067,3.4021,3.4028,3.412,3.4112,3.4399,3.4442,3.4223,3.4224,3.4226,0,3.2438,3.2544,3.2692,3.2772,3.2844,3.2972,3.3058,3.3126,3.3216,3.3362,3.3446,3.3592,3.3713,3.3943,3.4035,3.4175,3.4186,3.4277,3.4207,3.4191,3.4192,3.4187,3.42,3.429,3.4292,3.4294,3.4295,0,3.2632,3.2664,3.2787,3.2924,3.3026,3.3137,3.3247,3.3311,3.3398,3.3497,3.3645,3.3738,3.3924,3.407,3.4217,3.4291,3.431,3.4316,3.4346,3.4335,3.4306,3.4327,3.4059,3.431,3.4308,3.4307,3.4307,3.4306,3.2762,3.2859,3.2978,3.3115,3.3205,3.3307,3.3409,3.3486,3.361,3.3766,3.3799,3.3956,3.4077,3.4275,3.4354,3.448,3.4462,3.4505,3.4516,3.4527,3.4533,3.4282,3.4506,3.4506,3.4506,3.4505,3.4505,0,3.2961,3.3039,3.3163,3.3317,3.3425,3.3429,3.3552,3.3643,3.3781,3.3891,3.4009,3.4181,3.4323,3.4426,3.4571,3.4652,3.4664,3.4689,3.4685,3.4703,3.4538,3.45,3.4676,3.4676,3.4676,3.4676,3.4676,3.4676,3.3077,3.3243,3.329,3.3501,3.3579,3.3733,3.3803,3.3899,3.3987,3.4177,3.4295,3.436,3.4469,3.4623,3.4754,3.4781,3.4835,3.4859,3.4887,3.4732,3.4714,3.4697,3.4661,3.4869,3.487,3.5043,3.5044,3.5045]}]]